Location: Champs
(48.8539°N, 2.6040°E)
Time: 10:10:23
(UTC+00:00)

USA 308 - Pass Details

Date: 02 June 2022
Orbit: 549 x 558 km, 54.0° (Epoch: 14 June)

Event Time Altitude Azimuth Distance (km) Brightness Sun altitude
Rises 01:48:44 0° 287° (WNW) 2,739 6.3 -14.0°
Reaches altitude 10° 01:51:04 10° 294° (WNW) 1,845 5.4 -13.8°
Maximum altitude 01:55:04 42° 6° (N) 812 4.2 -13.5°
Drops below altitude 10° 01:59:04 10° 78° (ENE) 1,849 6.1 -13.2°
Sets 02:01:24 0° 86° (E) 2,745 6.9 -13.0°
